Weather Roundup
Issued by NWS Chicago, IL

Home | Current Version | Previous Version | Text Only | Print | Product List | Glossary On
Versions: 1 2 3 4 5 6 7 8 9 10 11 12 13 14 15 16 17 18 19 20 21 22 23 24 25 26 27 28 29 30 31 32 33 34 35 36 37 38 39 40 41 42 43 44 45 46 47 48 49 50
000
NZUS59 KLOT 050308
HRRLOT

CHICAGO AREA WEATHER ROUNDUP
NATIONAL WEATHER SERVICE CHICAGO/ROMEOVILLE IL
1000 PM CDT WED MAY 04 2016

NOTE: "FAIR" INDICATES FEW OR NO CLOUDS BELOW 12,000 FEET WITH NO
SIGNIFICANT WEATHER AND/OR OBSTRUCTIONS TO VISIBILITY.

* THESE STATIONS ARE NOT UNDER NWS QUALITY CONTROL. THEY ALSO MAY NOT
  REPORT WEATHER SUCH AS PRECIPITATION OR FOG.

ILZ005-006-012>014-019>023-050400-
NORTHEAST ILLINOIS

CITY           SKY/WX    TMP DP  RH WIND       PRES   REMARKS
OHARE          PTCLDY    43  34  70 N16G26    29.88R
MIDWAY         CLOUDY    45  33  63 N17G23    29.88R
AURORA         CLEAR     44  37  76 NE12      29.89R
LANSING*       CLOUDY    43  35  72 N17G26    29.87R
JOLIET*        CLOUDY    46  37  69 NE9       29.89R
WAUKEGAN       MOCLDY    42  35  76 N9G20     29.89R
DUPAGE AIRPORT CLEAR     39  33  79 N8        29.89R
WHEELING       PTCLDY    43  34  70 N12       29.90R
KANKAKEE*      CLOUDY    45  37  73 N6        29.88R
MORRIS*        PTCLDY    44  37  77 NE3       29.88R
LEWIS AIRPORT* MOCLDY    44  34  68 NE16G24   29.88R
$$

WIZ051-052-058>065-066-070>072-050400-
SOUTHEAST WISCONSIN

CITY           SKY/WX    TMP DP  RH WIND       PRES   REMARKS
MILWAUKEE      PTCLDY    40  35  83 N16G23    29.91R
KENOSHA*       CLEAR     41  34  76 N10       29.90R
RACINE*        CLEAR     41  34  76 N16       29.92R
BURLINGTON     CLEAR     39  33  80 NE5       29.91R
WAUKESHA       CLEAR     37  34  87 NE5       29.93R
WEST BEND      CLEAR     37  34  87 NE5       29.92R
$$

INZ001>003-010>013-019-020-050400-
NORTHWEST INDIANA

CITY           SKY/WX    TMP DP  RH WIND       PRES   REMARKS
GARY*          MOCLDY    45  41  87 N17G35    29.87R
MICHIGAN CITY* NOT AVBL
RENSSELAER*    NOT AVBL
VALPARAISO     CLOUDY    41  36  82 N13G26    29.82S
$$

LMZ740>746-050400-
SOUTHERN LAKE MICHIGAN

STATION/POSITION TIME  SKY/WX   TEMP WIND        PRES    VSBY
                                AIR  DIR/SP/G
                 (UTC)          (F)  (DEG/KT/KT) (MB)    (MI)
HARRISON CRIB    0200            44  350/ 21/ 23   N/A
BURNHAM HARBOR   0300            43  360/ 16/ 20   N/A
CALUMET HARBOR   0200            43              1010.7R
BURNS HARBOR     0301            44  360/ 24/ 29 1010.8S
MICHIGAN CITY    0200            42  340/ 35/ 38   N/A
$$

ABBREVIATIONS USED IN REMARKS
   TC - TEMPERATURE IN CELSIUS
  WCI - WIND CHILL INDEX
   HX - HEAT INDEX
  VSB - VISIBILITY
$$



USA.gov is the U.S. government's official web portal to all federal, state and local government web resources and services.